Regional Weather Roundup
Issued by NWS State College, PA

Home | Current Version | Previous Version | Text Only | Print | Product List | Glossary On
Versions: 1 2 3 4 5 6 7 8 9 10 11 12 13 14 15 16 17 18 19 20 21 22 23 24 25 26 27 28 29 30 31 32 33 34 35 36 37 38 39 40 41 42 43 44 45 46 47 48 49 50
000
ASUS41 KCTP 250303
RWRCTP

REGIONAL WEATHER ROUNDUP
NATIONAL WEATHER SERVICE STATE COLLEGE PA
1100 PM EDT MON JUL 24 2017

Note: "fair" indicates few or no clouds below 12,000 feet with no
significant weather and/or obstructions to visibility.

* = STATION THAT DOES NOT REPORT PRECIPITATION /E.G. RAIN...SNOW...ETC/
    THUNDER OR FOG.

PAZ002>004-007>009-013>016-020>023-029>032-250400-
WESTERN PENNSYLVANIA

CITY           SKY/WX    TMP DP  RH WIND       PRES   REMARKS
ERIE           CLOUDY    66  56  70 NW10      30.01R
MEADVILLE      LGT RAIN  61  58  90 W7        30.03S
FRANKLIN*      CLOUDY    61  54  77 NW10      30.03R
NEW CASTLE     CLOUDY    65  57  75 NW8       30.05R
BEAVER COUNTY  NOT AVBL
BUTLER*        CLOUDY    64  54  68 W5        30.04R
PITTSBURGH INT CLOUDY    67  57  70 NW8       30.04R
PITTSBURGH     CLOUDY    67  54  63 NW8G17    30.03R
INDIANA*       CLOUDY    66  57  72 NW5       30.05R
LATROBE        PTCLDY    64  59  82 W3        30.04R
WASHINGTON CO* MOCLDY    63  57  82 NW3       30.05R
$$

PAZ004>006-010>012-017>019-024>028-033>037-041-042-045-046-049>053-250400-
CENTRAL PENNSYLVANIA

CITY           SKY/WX    TMP DP  RH WIND       PRES   REMARKS
BRADFORD       CLOUDY    61  58  90 VRB6      30.00R
DUBOIS         CLOUDY    62  55  77 W15G22    30.01R
CLEARFIELD     CLOUDY    65  57  75 W6        30.00R
JOHNSTOWN      MOCLDY    62  57  83 NW9       30.03R
ALTOONA        PTCLDY    66  56  70 NW13G21   30.00R
STATE COLLEGE  CLOUDY    68  56  66 W6        29.98R
WILLIAMSPORT   CLEAR     70  61  73 W5        29.90R
SELINSGROVE    MOCLDY    66  65  96 W5        29.93R
FT INDIANTOWN  PTCLDY    71  66  84 NW3       29.91R
CAPITAL CITY   CLOUDY    77  59  53 NW10      29.90R
HARRISBURG     MOCLDY    76  62  62 NW10      29.89R
YORK           NOT AVBL
$$

PAZ038>040-043-044-047-048-054-055-060>062-067>071-250400-
EASTERN PENNSYLVANIA

CITY           SKY/WX    TMP DP  RH WIND       PRES   REMARKS
SCRANTON       MOCLDY    69  65  86 CALM      29.92R
MOUNT POCONO   FOG       60  60 100 SE8       29.96R VSB 1/2
ALLENTOWN      CLOUDY    69  64  84 E8        29.92R
QUAKERTOWN*    CLOUDY    66  66 100 E5        29.92R
READING        MOCLDY    70  70 100 CALM      29.89R
LANCASTER      MOCLDY    73  72  96 SE3       29.91R
COATESVILLE    NOT AVBL
POTTSTOWN      CLOUDY    69  69 100 NE3       29.91S
BLUE BELL      CLOUDY    66  66 100 E5        29.91F
DOYLESTOWN     CLOUDY    65  65 100 VRB3      29.91R
WILLOW GROVE   NOT AVBL
NORTH PHILA    CLOUDY    69  65  86 SE10      29.91S
PHILADELPHIA   CLOUDY    70  67  90 E9        29.89F
$$



USA.gov is the U.S. government's official web portal to all federal, state and local government web resources and services.